GW3840 Weather Reports


Display with metric or nautical units.
time (UTC)temp
F
wind
direction
speed
MPH
gust
MPH
rain 1hr
in
rain 24hr
in
rain mn
in
humidity
%
barometer
mb
20260510113234 45 67 4.0 7.0 0.00 0.00 0.00 62 1020.6
20260510112725 45 39 4.0 8.0 0.00 0.00 0.00 64 1020.5
20260510112222 45 10 4.0 8.0 0.00 0.00 0.00 62 1020.5
20260510111717 44 42 0.0 1.0 0.00 0.00 0.00 66 1020.4
20260510111215 44 107 0.0 3.0 0.00 0.00 0.00 65 1020.6
20260510110714 44 24 0.0 2.0 0.00 0.00 0.00 66 1020.3
20260510110213 44 32 2.0 3.0 0.00 0.00 0.00 65 1020.2
20260510105712 44 23 3.0 4.0 0.00 0.00 0.00 66 1020.0
20260510105207 44 95 1.0 6.0 0.00 0.00 0.00 66 1020.1
20260510104704 44 97 0.0 2.0 0.00 0.00 0.00 67 1019.9
20260510104201 44 66 0.0 1.0 0.00 0.00 0.00 67 1019.9
20260510103657 44 79 1.0 2.0 0.00 0.00 0.00 67 1019.6
20260510103154 44 86 1.0 1.0 0.00 0.00 0.00 66 1019.9
20260510102654 44 17 2.0 2.0 0.00 0.00 0.00 66 1019.5
20260510102151 44 140 0.0 2.0 0.00 0.00 0.00 66 1019.9
20260510101648 44 40 0.0 2.0 0.00 0.00 0.00 68 1019.5
20260510101146 44 148 0.0 0.0 0.00 0.00 0.00 67 1019.6
20260510100642 44 125 0.0 1.0 0.00 0.00 0.00 66 1019.6
20260510100140 44 28 1.0 2.0 0.00 0.00 0.00 67 1019.5
20260510095635 44 36 1.0 2.0 0.00 0.00 0.00 67 1019.6
20260510095130 44 45 1.0 2.0 0.00 0.00 0.00 65 1019.4
20260510094623 44 96 1.0 3.0 0.00 0.00 0.00 67 1019.4
20260510094119 44 89 2.0 4.0 0.00 0.00 0.00 67 1019.4
20260510093616 44 33 3.0 4.0 0.00 0.00 0.00 67 1019.3
20260510093113 44 116 0.0 3.0 0.00 0.00 0.00 69 1019.1
20260510092610 44 105 1.0 3.0 0.00 0.00 0.00 70 1019.1
20260510092109 45 52 0.0 2.0 0.00 0.00 0.00 70 1019.0
20260510091606 45 5 1.0 3.0 0.00 0.00 0.00 69 1019.0
20260510091102 45 41 3.0 4.0 0.00 0.00 0.00 67 1019.0
20260510090600 46 20 2.0 7.0 0.00 0.00 0.00 64 1019.0
20260510090055 46 42 4.0 7.0 0.00 0.00 0.00 66 1018.8
20260510085550 45 5 3.0 4.0 0.00 0.00 0.00 66 1018.7
20260510085046 46 34 4.0 6.0 0.00 0.00 0.00 65 1018.6
20260510084543 46 75 0.0 2.0 0.00 0.00 0.00 65 1018.6
20260510084040 45 10 4.0 4.0 0.00 0.00 0.00 64 1018.5
20260510083536 45 31 2.0 2.0 0.00 0.00 0.00 64 1018.5
20260510083032 45 335 1.0 3.0 0.00 0.00 0.00 66 1018.3
20260510082530 45 56 0.0 3.0 0.00 0.00 0.00 66 1018.2
20260510082025 45 16 1.0 2.0 0.00 0.00 0.00 67 1018.0
20260510081520 45 100 0.0 1.0 0.00 0.00 0.00 73 1017.8
20260510081016 44 252 0.0 1.0 0.00 0.00 0.00 73 1018.0
20260510080515 43 271 1.0 2.0 0.00 0.00 0.00 74 1017.6
20260510080012 44 206 0.0 0.0 0.00 0.00 0.00 78 1017.6
20260510075510 44 205 0.0 0.0 0.00 0.00 0.00 77 1017.6
20260510075006 44 210 1.0 1.0 0.00 0.00 0.00 76 1017.6
20260510074504 43 217 0.0 0.0 0.00 0.00 0.00 77 1017.8
20260510073959 43 187 0.0 0.0 0.00 0.00 0.00 77 1017.6
20260510073455 43 186 0.0 0.0 0.00 0.00 0.00 75 1017.6
20260510072952 43 178 0.0 0.0 0.00 0.00 0.00 75 1017.8
20260510072449 42 194 0.0 0.0 0.00 0.00 0.00 75 1017.8
20260510071944 42 187 0.0 0.0 0.00 0.00 0.00 75 1017.5
20260510071441 42 199 0.0 0.0 0.00 0.00 0.00 73 1017.6
20260510070939 42 190 0.0 0.0 0.00 0.00 0.00 73 1017.6
20260510070436 41 190 0.0 1.0 0.00 0.00 0.00 73 1017.6
20260510065932 41 156 0.0 0.0 0.00 0.00 0.00 74 1017.8
20260510065429 41 201 0.0 1.0 0.00 0.00 0.00 74 1017.7
20260510064924 41 189 0.0 1.0 0.00 0.00 0.00 77 1017.8
20260510064423 42 165 0.0 0.0 0.00 0.00 0.00 77 1017.7
20260510063919 42 247 0.0 1.0 0.00 0.00 0.00 76 1017.7
20260510063415 43 200 0.0 0.0 0.00 0.00 0.00 79 1017.7
20260510062913 43 205 0.0 0.0 0.00 0.00 0.00 80 1017.5
20260510062408 43 207 0.0 0.0 0.00 0.00 0.00 81 1017.7
20260510061904 44 213 0.0 0.0 0.00 0.00 0.00 81 1017.5
20260510061401 44 221 1.0 1.0 0.00 0.00 0.00 81 1017.6
20260510060856 44 214 1.0 2.0 0.00 0.00 0.00 80 1017.4
20260510060354 42 232 1.0 1.0 0.00 0.00 0.00 79 1017.6
20260510055849 41 226 1.0 1.0 0.00 0.00 0.00 78 1017.6
20260510055349 40 183 0.0 0.0 0.00 0.00 0.00 78 1017.6
20260510054843 40 165 0.0 0.0 0.00 0.00 0.00 77 1017.8
20260510054338 40 165 0.0 0.0 0.00 0.00 0.00 76 1017.6
20260510053833 39 165 0.0 0.0 0.00 0.00 0.00 74 1017.6
20260510053329 40 165 0.0 0.0 0.00 0.00 0.00 73 1017.4
20260510052826 39 165 0.0 0.0 0.00 0.00 0.00 73 1017.5
20260510052321 39 165 0.0 0.0 0.00 0.00 0.00 74 1017.4
20260510051818 40 164 0.0 0.0 0.00 0.00 0.00 73 1017.4
20260510051315 40 164 0.0 0.0 0.00 0.00 0.00 73 1017.1
20260510050812 40 168 0.0 0.0 0.00 0.00 0.00 72 1017.4
20260510050308 40 167 0.0 0.0 0.00 0.00 0.00 71 1017.4
20260510045806 41 167 0.0 0.0 0.00 0.09 0.09 71 1017.1
20260510045305 41 161 0.0 0.0 0.00 0.09 0.09 70 1017.4
20260510044759 41 161 0.0 0.0 0.00 0.09 0.09 71 1016.9
20260510044256 42 165 0.0 0.0 0.00 0.09 0.09 69 1017.1
20260510043752 42 165 0.0 0.0 0.00 0.09 0.09 69 1017.1
20260510043243 43 184 0.0 0.0 0.00 0.09 0.09 67 1017.2
20260510042740 43 184 0.0 0.0 0.00 0.09 0.09 66 1017.2
20260510042236 44 184 0.0 0.0 0.00 0.09 0.09 63 1017.1
20260510041733 44 180 0.0 0.0 0.00 0.09 0.09 63 1017.0
20260510041230 44 195 0.0 0.0 0.00 0.09 0.09 62 1016.9
20260510040727 45 195 0.0 0.0 0.00 0.09 0.09 61 1017.1
20260510040224 45 195 0.0 0.0 0.00 0.09 0.09 65 1017.0
20260510035719 46 195 0.0 0.0 0.00 0.09 0.09 64 1017.1
20260510035216 45 222 0.0 0.0 0.00 0.09 0.09 63 1017.1
20260510034711 45 224 0.0 0.0 0.00 0.09 0.09 64 1016.9
20260510034209 45 224 0.0 0.0 0.00 0.09 0.09 61 1017.0
20260510033704 45 224 0.0 0.0 0.00 0.09 0.09 61 1017.0
20260510033203 45 224 0.0 0.0 0.00 0.09 0.09 59 1016.8
20260510032658 45 224 0.0 0.0 0.00 0.09 0.09 59 1016.8
20260510032154 46 224 0.0 0.0 0.00 0.09 0.09 57 1016.8
20260510031649 46 225 0.0 0.0 0.00 0.09 0.09 56 1017.0
20260510031146 46 225 0.0 0.0 0.00 0.09 0.09 56 1016.8
20260510030640 46 224 0.0 0.0 0.00 0.09 0.09 56 1016.7
20260510030138 46 225 0.0 0.0 0.00 0.09 0.09 55 1016.8
20260510025635 47 224 0.0 0.0 0.00 0.09 0.09 53 1016.6
20260510025132 48 224 0.0 0.0 0.00 0.09 0.09 53 1016.6
20260510024629 48 342 0.0 0.0 0.00 0.09 0.09 50 1016.5
20260510024126 49 234 0.0 1.0 0.00 0.09 0.09 49 1016.5
20260510023621 49 268 1.0 1.0 0.00 0.09 0.09 47 1016.5
20260510023119 49 247 0.0 1.0 0.00 0.09 0.09 48 1016.4
20260510022613 49 299 1.0 1.0 0.00 0.09 0.09 48 1016.4
20260510022108 49 273 0.0 1.0 0.00 0.09 0.09 47 1016.4
20260510021604 50 299 0.0 1.0 0.00 0.09 0.09 47 1016.2
20260510021102 50 22 0.0 1.0 0.00 0.09 0.09 47 1016.2
20260510020556 50 340 1.0 3.0 0.00 0.09 0.09 46 1016.1
20260510020052 50 337 0.0 3.0 0.00 0.09 0.09 45 1016.1
20260510015548 50 309 3.0 4.0 0.00 0.09 0.09 44 1016.1
20260510015044 50 299 1.0 3.0 0.00 0.09 0.09 44 1015.7
20260510014540 50 308 3.0 6.0 0.00 0.09 0.09 43 1015.8
20260510014037 51 317 2.0 4.0 0.00 0.09 0.09 43 1015.8
20260510013531 51 352 4.0 6.0 0.00 0.09 0.09 43 1015.7
20260510013028 51 344 2.0 8.0 0.00 0.09 0.09 42 1015.7
20260510012522 51 5 3.0 7.0 0.00 0.09 0.09 42 1015.4
20260510012019 51 358 4.0 8.0 0.00 0.09 0.09 42 1015.4
20260510011518 51 283 3.0 9.0 0.00 0.09 0.09 41 1015.4
20260510011013 52 291 4.0 8.0 0.00 0.09 0.09 41 1015.3
20260510010511 52 338 4.0 6.0 0.00 0.09 0.09 41 1015.3
20260510010008 52 357 4.0 9.0 0.00 0.09 0.09 40 1015.4
20260510005503 52 358 5.0 8.0 0.00 0.09 0.09 40 1015.2
20260510005001 52 302 4.0 10.0 0.00 0.09 0.09 40 1015.0
20260510004458 53 243 3.0 10.0 0.00 0.09 0.09 39 1015.2
20260510003957 53 338 6.0 10.0 0.00 0.09 0.09 39 1015.1
20260510003453 52 116 2.0 4.0 0.00 0.09 0.09 41 1014.9
20260510002948 53 359 5.0 7.0 0.00 0.09 0.09 39 1015.0
20260510002444 53 21 4.0 7.0 0.00 0.09 0.09 39 1014.9
20260510001942 54 9 4.0 11.0 0.00 0.09 0.09 38 1015.1
20260510001439 55 329 7.0 11.0 0.00 0.09 0.09 38 1015.0
20260510000937 54 19 8.0 11.0 0.00 0.09 0.09 37 1014.7
20260510000433 55 9 5.0 9.0 0.00 0.09 0.09 37 1014.7
20260509235929 55 332 4.0 8.0 0.00 0.09 0.09 40 1014.6
20260509235426 55 314 9.0 15.0 0.00 0.09 0.09 35 1014.7
20260509234921 55 314 9.0 15.0 0.00 0.09 0.09 35 1014.7
20260509234419 55 314 9.0 15.0 0.00 0.09 0.09 35 1014.6
20260509233917 55 349 5.0 7.0 0.00 0.09 0.09 38 1014.4
20260509233415 53 345 6.0 9.0 0.00 0.09 0.09 39 1014.2
20260509232911 54 340 2.0 4.0 0.00 0.09 0.09 39 1014.5
20260509232408 53 332 5.0 8.0 0.00 0.09 0.09 38 1014.5
20260509231904 54 27 5.0 7.0 0.00 0.09 0.09 38 1014.1
20260509231400 55 16 6.0 8.0 0.00 0.09 0.09 39 1014.0
20260509230858 55 16 6.0 8.0 0.00 0.09 0.09 39 1014.2
20260509230355 55 16 6.0 8.0 0.00 0.09 0.09 39 1014.3
20260509225851 55 16 6.0 8.0 0.00 0.09 0.09 39 1014.3
20260509225348 55 307 6.0 8.0 0.00 0.09 0.09 38 1014.1
20260509224843 55 307 6.0 8.0 0.00 0.09 0.09 38 1014.1
20260509224339 54 343 3.0 4.0 0.00 0.09 0.09 42 1014.0
20260509223836 54 343 3.0 4.0 0.00 0.09 0.09 42 1014.0
20260509223333 54 343 3.0 4.0 0.00 0.09 0.09 42 1014.0
20260509222830 54 323 6.0 10.0 0.00 0.09 0.09 40 1014.1
20260509222325 54 57 6.0 9.0 0.00 0.09 0.09 41 1013.9
20260509221821 55 2 5.0 8.0 0.00 0.09 0.09 40 1013.8
20260509221319 56 304 3.0 8.0 0.00 0.09 0.09 41 1013.7
20260509220814 56 258 3.0 13.0 0.00 0.09 0.09 41 1013.8
20260509220310 56 346 4.0 9.0 0.00 0.09 0.09 40 1013.7
20260509215806 56 31 4.0 10.0 0.00 0.09 0.09 40 1014.1
20260509215306 56 356 7.0 11.0 0.00 0.09 0.09 38 1013.8
20260509214800 55 301 11.0 15.0 0.00 0.09 0.09 39 1013.6
20260509214257 56 342 7.0 10.0 0.00 0.09 0.09 40 1013.8
20260509213754 56 268 5.0 10.0 0.00 0.09 0.09 42 1013.9
20260509213249 56 282 8.0 11.0 0.00 0.09 0.09 39 1013.7
20260509212747 55 311 8.0 11.0 0.00 0.09 0.09 39 1013.7
20260509212244 55 324 14.0 19.0 0.00 0.09 0.09 37 1013.7
20260509211745 55 351 5.0 15.0 0.00 0.09 0.09 40 1013.9
20260509211241 56 274 9.0 16.0 0.00 0.09 0.09 39 1013.6
20260509210738 55 269 6.0 11.0 0.00 0.09 0.09 40 1013.7
20260509210236 55 343 9.0 16.0 0.00 0.09 0.09 39 1013.8
20260509205735 55 289 5.0 13.0 0.00 0.09 0.09 41 1013.7
20260509205230 56 250 7.0 14.0 0.00 0.09 0.09 40 1013.8
20260509204726 56 262 8.0 13.0 0.00 0.09 0.09 39 1013.8
20260509204223 54 351 6.0 14.0 0.00 0.09 0.09 41 1013.7
20260509203719 56 279 9.0 17.0 0.00 0.09 0.09 39 1013.9
20260509203218 56 301 6.0 13.0 0.00 0.09 0.09 45 1013.6
20260509202713 55 57 4.0 9.0 0.00 0.09 0.09 42 1013.6
20260509202208 55 315 9.0 13.0 0.00 0.09 0.09 42 1013.6
20260509201703 54 318 7.0 15.0 0.00 0.09 0.09 42 1013.8
20260509201201 54 308 6.0 11.0 0.00 0.09 0.09 42 1013.7
20260509200657 54 315 8.0 16.0 0.00 0.09 0.09 41 1013.7
20260509200152 53 32 6.0 17.0 0.00 0.09 0.09 45 1013.8
20260509195647 53 346 7.0 14.0 0.00 0.09 0.09 44 1013.6
20260509195143 53 43 6.0 11.0 0.00 0.09 0.09 46 1013.6
20260509194637 53 14 5.0 13.0 0.00 0.09 0.09 43 1013.6
20260509194135 53 271 6.0 10.0 0.00 0.09 0.09 45 1013.5
20260509193630 54 322 6.0 10.0 0.00 0.09 0.09 45 1013.6
20260509193126 54 342 7.0 11.0 0.00 0.09 0.09 45 1013.5
20260509192623 53 23 5.0 16.0 0.00 0.09 0.09 51 1013.3
20260509192118 53 320 8.0 14.0 0.00 0.09 0.09 47 1013.3
20260509191612 53 339 6.0 14.0 0.00 0.09 0.09 46 1013.2
20260509191108 52 0 9.0 13.0 0.00 0.09 0.09 47 1013.4
20260509190605 53 3 4.0 15.0 0.00 0.09 0.09 46 1013.3
20260509185600 53 329 11.0 17.0 0.00 0.09 0.09 46 1013.3
20260509185056 53 303 4.0 11.0 0.00 0.09 0.09 47 1013.4
20260509184555 52 359 5.0 11.0 0.00 0.09 0.09 49 1013.2
20260509184051 52 283 6.0 9.0 0.00 0.09 0.09 49 1013.2
20260509183546 52 320 4.0 6.0 0.00 0.09 0.09 49 1013.4
20260509183042 51 320 5.0 8.0 0.00 0.09 0.09 50 1013.2
20260509182539 52 338 4.0 14.0 0.00 0.09 0.09 51 1013.3
20260509182036 51 320 7.0 10.0 0.00 0.09 0.09 49 1013.1
20260509181534 52 17 4.0 10.0 0.00 0.09 0.09 49 1013.2
20260509181031 52 22 6.0 10.0 0.00 0.09 0.09 50 1012.9
20260509180527 51 299 8.0 14.0 0.00 0.09 0.09 50 1013.1
20260509180025 51 242 5.0 9.0 0.00 0.09 0.09 54 1013.0
20260509175520 51 324 5.0 7.0 0.00 0.09 0.09 50 1013.0
20260509175017 51 223 5.0 10.0 0.00 0.09 0.09 52 1013.2
20260509174514 51 343 9.0 14.0 0.00 0.09 0.09 52 1013.0
20260509174009 51 265 4.0 15.0 0.00 0.09 0.09 53 1012.9
20260509173503 50 37 11.0 14.0 0.00 0.09 0.09 51 1012.9
20260509173000 50 353 6.0 8.0 0.00 0.09 0.09 54 1012.8
20260509172457 51 308 4.0 8.0 0.00 0.09 0.09 56 1012.8
20260509171952 50 245 3.0 4.0 0.00 0.09 0.09 53 1012.8
20260509171449 51 19 6.0 15.0 0.00 0.09 0.09 50 1012.9
20260509170945 50 286 6.0 7.0 0.00 0.09 0.09 55 1012.7
20260509170441 50 358 5.0 8.0 0.00 0.09 0.09 52 1012.7
20260509165936 50 326 4.0 4.0 0.00 0.09 0.09 55 1012.7
20260509165431 50 318 6.0 7.0 0.00 0.09 0.09 52 1012.5
20260509164926 49 28 7.0 14.0 0.00 0.09 0.09 53 1012.5
20260509164423 50 54 6.0 9.0 0.00 0.09 0.09 52 1012.4
20260509163919 49 351 7.0 13.0 0.00 0.09 0.09 54 1012.1
20260509163416 49 356 8.0 14.0 0.00 0.09 0.09 52 1012.2
20260509162915 50 298 7.0 11.0 0.00 0.09 0.09 54 1012.0
20260509162414 50 343 4.0 9.0 0.00 0.09 0.09 56 1012.0
20260509161910 49 10 5.0 7.0 0.00 0.09 0.09 52 1012.1
20260509161406 49 326 4.0 9.0 0.00 0.09 0.09 53 1011.9
20260509160902 49 342 4.0 16.0 0.00 0.09 0.09 52 1012.0
20260509160357 48 307 8.0 11.0 0.00 0.09 0.09 53 1012.1
20260509155853 49 268 6.0 10.0 0.00 0.09 0.09 55 1012.0
20260509155350 49 9 5.0 10.0 0.00 0.09 0.09 55 1011.7
20260509154846 49 6 8.0 10.0 0.00 0.09 0.09 55 1011.6
20260509154343 49 64 5.0 13.0 0.00 0.09 0.09 54 1011.6
20260509153839 49 1 5.0 10.0 0.00 0.09 0.09 57 1011.6
20260509153337 49 53 5.0 8.0 0.00 0.09 0.09 56 1011.5
20260509152833 48 34 4.0 11.0 0.00 0.09 0.09 57 1011.4
20260509152329 48 331 6.0 13.0 0.00 0.09 0.09 55 1011.4
20260509151827 48 303 9.0 13.0 0.00 0.09 0.09 56 1011.3
20260509151323 49 344 9.0 10.0 0.00 0.09 0.09 55 1011.3
20260509150822 48 346 3.0 14.0 0.00 0.09 0.09 57 1011.0
20260509150319 48 287 4.0 8.0 0.00 0.09 0.09 59 1011.1
20260509145816 49 319 5.0 11.0 0.00 0.09 0.09 59 1010.8
20260509145316 48 39 5.0 14.0 0.00 0.09 0.09 60 1011.1
20260509144812 48 122 7.0 10.0 0.00 0.09 0.09 59 1011.0
20260509144309 48 19 11.0 15.0 0.00 0.09 0.09 57 1010.9
20260509143806 48 344 9.0 16.0 0.00 0.09 0.09 58 1010.7
20260509143258 48 295 7.0 10.0 0.00 0.09 0.09 59 1010.7
20260509142753 48 10 4.0 10.0 0.00 0.09 0.09 62 1010.7
20260509142250 48 316 6.0 11.0 0.00 0.09 0.09 61 1010.6
20260509141745 48 323 6.0 14.0 0.00 0.09 0.09 60 1010.5
20260509141243 47 46 4.0 10.0 0.00 0.09 0.09 64 1010.7
20260509140739 47 3 6.0 11.0 0.00 0.09 0.09 62 1010.5
20260509140237 47 18 6.0 10.0 0.00 0.09 0.09 64 1010.3
20260509135734 47 36 5.0 13.0 0.00 0.09 0.09 64 1010.3
20260509135232 47 315 4.0 13.0 0.00 0.09 0.09 64 1010.4
20260509134729 47 338 7.0 9.0 0.00 0.09 0.09 65 1010.1
20260509134226 47 3 1.0 9.0 0.00 0.09 0.09 69 1010.1
20260509133723 47 35 4.0 8.0 0.00 0.09 0.09 70 1010.0
20260509133220 46 16 6.0 9.0 0.00 0.09 0.09 69 1010.0
20260509132719 46 357 6.0 10.0 0.00 0.09 0.09 72 1009.9
20260509132217 46 346 5.0 8.0 0.00 0.09 0.09 74 1009.9
20260509131713 46 29 8.0 11.0 0.00 0.09 0.09 75 1009.6
20260509131210 46 352 4.0 13.0 0.00 0.09 0.09 77 1009.5
20260509130705 46 50 5.0 11.0 0.00 0.09 0.09 79 1009.6
20260509130202 46 17 5.0 9.0 0.00 0.09 0.09 80 1009.6
20260509125658 45 42 6.0 15.0 0.00 0.09 0.09 80 1009.3
20260509125155 45 353 5.0 7.0 0.00 0.09 0.09 83 1009.2
20260509124652 45 317 4.0 8.0 0.00 0.09 0.09 83 1009.0
20260509124148 45 347 3.0 8.0 0.00 0.09 0.09 84 1009.0
20260509123647 45 347 4.0 7.0 0.00 0.09 0.09 85 1008.9
20260509123143 45 352 5.0 8.0 0.00 0.09 0.09 86 1009.0
20260509122639 45 109 2.0 4.0 0.00 0.09 0.09 86 1008.8
20260509122136 45 309 4.0 10.0 0.00 0.09 0.09 86 1008.9
20260509121632 44 336 4.0 6.0 0.00 0.09 0.09 88 1008.6
20260509121131 44 239 4.0 9.0 0.00 0.09 0.09 90 1008.4
20260509120628 44 321 4.0 7.0 0.00 0.09 0.09 92 1008.5
20260509120126 44 302 3.0 7.0 0.00 0.09 0.09 93 1008.5
20260509115623 44 294 4.0 6.0 0.00 0.09 0.09 94 1008.3
20260509115121 43 8 6.0 7.0 0.00 0.09 0.09 95 1008.1
20260509114619 43 24 3.0 3.0 0.00 0.09 0.09 96 1008.1
20260509114118 0 0.0 0.0 0.00 0.00 0.00 1008.0